"Pseudo-MPEC" for P117MYu

Created 2020 Oct 19 5:07:28 UT using Find_Orb

Click here for an explanation of pseudo-MPECs

 
 Astrometry: 
     P117MYu  C2020 10 14dBa,kDZk,iWMkdHL2K:uX-lZX4hQ$,M?,ZdP:/7]A702UX^h)xc+F51
     P117MYu  C2020 10 14/vcwoUKvtWV8bJHy.ijUEQ9gZ7Qvv:L98kbm_BM;45@\hN%2FZXwF51
     P117MYu  C2020 10 14MyX*.:E[.]p*BUoK;_kwMsW`?kr=?qu7]R!r:^x0B@fIjkdO\;VUF51
     P117MYu  C2020 10 14LpNhk7:@Np$ZqPt/O+QIKTmpv,4Sa`#i$l[o`!xVYX'0-698Ab=vF51
     P117MYu  C2020 10 1503n,?(9Zi=IG/^=I`;YsAstrometryM`)ZPBLq_imoVbUOjo/323F51
     P117MYu  C2020 10 15[uqRD1GW+t=hUme[d$%2s[N(1wt,/ag^3s(D@_):VrI#7+B;0ThEF51
     P117MYu  C2020 10 15(p0n_,WFM3Fx2f8;[Hg^L$in?SaS*Xc^HE7ILS\s,n9xdNFQ3L0VF51
     P117MYu  C2020 10 17@)dBk=IZ?))d@,6NBcZ7W2U+X,r_p)%mkd\nD!w'e=3VkV?%GP76F51
     P117MYu  C2020 10 17Jb./Y7hY^jJH'rG(oNH2$XLw]sNuOy7L.JP]Vua%Y*NTRaJ0?vbVF51
     P117MYu  C2020 10 17Ij+R.*DZlnRCR/9htsn$!1'u5#]l'Mw3[\WpNHq2Wi%ycRmBTJSpF51
     P117MYu  C2020 10 18Q(,.fRi9O#u14E::meL%Uredacted;,$r^L:8PGc'PIiclick!Y/F51
     P117MYu  C2020 10 18P6^J)VewAherekVPw4I6:=(j?kKI:;?;NNFd34pLSGmy#xvlfor!F51
     P117MYu  C2020 10 18f,row7:explanationH`U=%Jk.J/ufDk8Q9`Pp8'b9mI1F#WH=2fF51
     P117MYu  C2020 10 18C61QaAL'?q@pdZG5r(QeuP8FSooq[5nqFy2gK:`v4W;nXP@`'+5(F51

Station data:
(F51) Pan-STARRS 1, Haleakala  (N20.707235 W156.255910)  US/Hawaii.
   Observers N. Primak, A. Schultz, S. Watters, J. Thiel, T. Goggia. Measurer
   PS1 Science Consortium. 1.8-m Ritchey-Chrétien + CCD.

Orbital elements:  P117MYu
   Perihelion 2020 Dec 2.945193 +/- 0.0483 TT = 22:41:04 (JD 2459186.445193)
Epoch 2020 Oct 18.0 TT = JDT 2459140.5   Earth MOID: 0.0395   Ma: 0.0757
M 333.15423808 +/- 0.19             (J2000 ecliptic)          AutoNEOCP
n   0.58429969 +/- 0.00422          Peri.   10.02274 +/- 0.12
a   1.41702967 +/- 0.00683          Node    62.34719 +/- 0.06
e   0.2772094 +/- 0.00326           Incl.    5.74387 +/- 0.055
P   1.69/616.11d           H 25.3   G  0.15   U  9.1  
q 1.02421572 +/- 0.00042    Q 1.80984361 +/- 0.0134
From 14 observations 2020 Oct. 14-18; mean residual 0".13
Residuals in arcseconds: 
201014 F51  .02+  .06+    201015 F51  .06+  .19+    201018 F51  .02-  .17-    
201014 F51  .01-  .10+    201015 F51  .09+  .04-    201018 F51  .00   .06+    
201014 F51  .01+  .11-    201017 F51  .08+  .01+    201018 F51  .07-  .14+    
201014 F51  .04-  .03+    201017 F51  .12+  .34+    201018 F51  .13+  .18-    
201015 F51  .10-  .31-    201017 F51  .27-  .09-    

Ephemerides (geocentric):
Date (UTC) HH   RA              Dec         delta   r     elong  mag " sig PA
---- -- -- --  -------------   -----------  ------ ------ -----  --- ---- ---
2020 10 19 05  02 48 19.828   -18 27 01.22  .11829 1.0965 146.4 22.2 .833 159
2020 10 19 06  02 48 24.404   -18 26 45.34  .11816 1.0964 146.4 22.2 .851 158
2020 10 19 07  02 48 28.984   -18 26 29.31  .11803 1.0963 146.4 22.2 .870 158
2020 10 19 08  02 48 33.571   -18 26 13.13  .11789 1.0962 146.4 22.2 .890 157
2020 10 19 09  02 48 38.162   -18 25 56.79  .11776 1.0960 146.4 22.2 .909 157
2020 10 19 10  02 48 42.759   -18 25 40.31  .11763 1.0959 146.4 22.2 .929 157
2020 10 19 11  02 48 47.361   -18 25 23.67  .11750 1.0958 146.4 22.2 .949 156
2020 10 19 12  02 48 51.969   -18 25 06.88  .11737 1.0957 146.4 22.2 .970 156
2020 10 19 13  02 48 56.582   -18 24 49.93  .11723 1.0955 146.4 22.2 0.99 155
2020 10 19 14  02 49 01.200   -18 24 32.84  .11710 1.0954 146.5 22.2 1.01 155
2020 10 19 15  02 49 05.824   -18 24 15.59  .11697 1.0953 146.5 22.2 1.03 154
2020 10 19 16  02 49 10.454   -18 23 58.18  .11684 1.0952 146.5 22.2 1.06 154
2020 10 19 17  02 49 15.089   -18 23 40.62  .11671 1.0950 146.5 22.2 1.08 154
2020 10 19 18  02 49 19.729   -18 23 22.90  .11658 1.0949 146.5 22.2 1.10 153
2020 10 19 19  02 49 24.376   -18 23 05.03  .11645 1.0948 146.5 22.2 1.12 153
2020 10 19 20  02 49 29.027   -18 22 47.00  .11631 1.0947 146.5 22.2 1.15 153
2020 10 19 21  02 49 33.685   -18 22 28.82  .11618 1.0945 146.5 22.2 1.17 152
2020 10 19 22  02 49 38.347   -18 22 10.47  .11605 1.0944 146.5 22.2 1.20 152
2020 10 19 23  02 49 43.016   -18 21 51.97  .11592 1.0943 146.5 22.2 1.22 152
2020 10 20 00  02 49 47.690   -18 21 33.32  .11579 1.0942 146.5 22.2 1.24 152
2020 10 20 01  02 49 52.370   -18 21 14.50  .11566 1.0941 146.5 22.2 1.27 151
2020 10 20 02  02 49 57.056   -18 20 55.52  .11553 1.0939 146.5 22.2 1.29 151
2020 10 20 03  02 50 01.748   -18 20 36.39  .11540 1.0938 146.5 22.2 1.32 151
2020 10 20 04  02 50 06.445   -18 20 17.09  .11527 1.0937 146.5 22.2 1.35 150
2020 10 20 05  02 50 11.148   -18 19 57.63  .11514 1.0936 146.5 22.2 1.37 150
2020 10 20 06  02 50 15.857   -18 19 38.02  .11501 1.0934 146.5 22.2 1.40 150
2020 10 20 07  02 50 20.571   -18 19 18.24  .11488 1.0933 146.5 22.1 1.43 150
2020 10 20 08  02 50 25.292   -18 18 58.30  .11475 1.0932 146.5 22.1 1.45 150
2020 10 20 09  02 50 30.019   -18 18 38.19  .11462 1.0931 146.5 22.1 1.48 149
2020 10 20 10  02 50 34.751   -18 18 17.93  .11449 1.0929 146.5 22.1 1.51 149
2020 10 20 11  02 50 39.489   -18 17 57.50  .11436 1.0928 146.5 22.1 1.54 149
2020 10 20 12  02 50 44.234   -18 17 36.90  .11423 1.0927 146.5 22.1 1.57 149
2020 10 20 13  02 50 48.984   -18 17 16.15  .11410 1.0926 146.5 22.1 1.59 149
2020 10 20 14  02 50 53.741   -18 16 55.22  .11397 1.0925 146.5 22.1 1.62 148
2020 10 20 15  02 50 58.503   -18 16 34.14  .11384 1.0923 146.5 22.1 1.65 148
2020 10 20 16  02 51 03.271   -18 16 12.88  .11371 1.0922 146.5 22.1 1.68 148
2020 10 20 17  02 51 08.046   -18 15 51.46  .11358 1.0921 146.5 22.1 1.71 148
2020 10 20 18  02 51 12.827   -18 15 29.88  .11345 1.0920 146.5 22.1 1.74 148
2020 10 20 19  02 51 17.614   -18 15 08.12  .11332 1.0919 146.5 22.1 1.78 147
2020 10 20 20  02 51 22.407   -18 14 46.20  .11319 1.0917 146.5 22.1 1.81 147
2020 10 20 21  02 51 27.206   -18 14 24.11  .11306 1.0916 146.5 22.1 1.84 147
2020 10 20 22  02 51 32.011   -18 14 01.85  .11293 1.0915 146.5 22.1 1.87 147
2020 10 20 23  02 51 36.823   -18 13 39.43  .11280 1.0914 146.5 22.1 1.90 147
2020 10 21 00  02 51 41.641   -18 13 16.83  .11267 1.0912 146.5 22.1 1.93 147
2020 10 21 01  02 51 46.465   -18 12 54.06  .11254 1.0911 146.5 22.1 1.97 147
2020 10 21 02  02 51 51.296   -18 12 31.12  .11242 1.0910 146.5 22.1 2.00 146
2020 10 21 03  02 51 56.133   -18 12 08.01  .11229 1.0909 146.5 22.1 2.03 146
2020 10 21 04  02 52 00.976   -18 11 44.73  .11216 1.0908 146.5 22.1 2.07 146